Luis Alberto Arias

Olheiro-Chefe - Estudiantes
13 Nov 2027
Sábado
Processo

Personalidade

Adaptabilidade (1) Ambição (16) Controvérsia (5) Lealdade (20) Pressão (6) Profissionalismo (17) Espírito Esportivo (10) Temperamento (13)

Perfil

Estilo de Treinamento Democrático
Licença Continental Pro
Determinação 6
Gestão de Pessoas 1
Motivação 2
Disciplina 6
Satisfação no Trabalho
80%
Fadiga
0%
Função Olheiro-Chefe
Salário 13.4K p/s
Contrato 14.03.2029

Desempenho

Comportamento Bom
Eficácia do Treinamento
20%
Desenvolvimento do Jogador
25%
Prevenção de Lesões
10%
Implementação Tática
10%

Eventos Recentes

Participou de uma reunião de recrutamento 14d atrás
Participou de uma reunião de recrutamento 21d atrás
Participou de uma reunião de recrutamento 28d atrás
Aniversário 35d atrás
Participou de uma reunião de recrutamento 35d atrás
Participou de uma reunião de recrutamento 42d atrás
Participou de uma reunião de recrutamento 49d atrás
Participou de uma reunião de recrutamento 56d atrás

Monitorando agora

127
Jogador Clube Status Habilidade Confiança Observado Última observação Último voto
Dylan Guajardo Dorados Ativo 83 / 84 40% 1 29.11.2026 -
Alex Vigo Independiente Rivadavia Ativo 125 / 108 40% 1 27.11.2026 -
Maximiliano Centurión Sportivo Trinidense Ativo 104 / 93 40% 1 27.11.2026 -
César Magallan Estudiantes de Merida Ativo 105 / 111 40% 1 27.11.2026 -
Thiago Calone All Boys Ativo 117 / 128 40% 1 27.11.2026 -
Francisco Galván Deportivo Municipal Ativo 116 / 119 40% 2 26.11.2026 -
Favio Cabral Mitre Ativo 119 / 112 40% 1 26.11.2026 -
Tomás Escalante Plaza Colonia Ativo 112 / 130 40% 3 25.11.2026 -
Guido Sosa Atenas Ativo 104 / 92 40% 1 25.11.2026 -
Ezequiel Neira Carabobo Ativo 121 / 127 40% 2 24.11.2026 -
Gastón Verón Argentinos Juniors Ativo 111 / 111 40% 1 22.11.2026 -
Agustín Bianciotti Metropolitanos Ativo 94 / 108 40% 1 22.11.2026 -
Martín Gianoli Deportivo La Guaira Ativo 110 / 105 40% 2 21.11.2026 -
Nicolás Kozlovsky Oriental Ativo 105 / 98 40% 1 21.11.2026 -
Agustín Venezia Iquique Ativo 102 / 99 40% 1 20.11.2026 -
Alejo Cruz Juventud Ativo 110 / 132 40% 1 20.11.2026 -
Eduardo Agüero Montevideo City Torque Ativo 106 / 107 40% 2 17.11.2026 -
Emanuel Cecchini Juventud Ativo 106 / 112 40% 2 16.11.2026 -
Marco Saravia Progreso Ativo 120 / 112 40% 1 15.11.2026 -
Lautaro Pertusatti River Plate Ativo 112 / 118 40% 2 14.11.2026 -
Ismael Tejería Rampla Juniors Ativo 98 / 85 40% 1 14.11.2026 -
Álvaro San Emeterio Tacuarembo Ativo 98 / 109 40% 3 12.11.2026 -
Matías Machado Racing Ativo 116 / 125 40% 1 12.11.2026 -
Facundo Saravia Boston River Ativo 108 / 111 40% 1 11.11.2026 -
Juan Millán Danubio Ativo 110 / 104 40% 1 11.11.2026 -
Ramiro Brazionis Racing Ativo 108 / 102 40% 2 10.11.2026 -
Segundo Pachamé Plaza Colonia Ativo 106 / 108 40% 5 10.11.2026 -
Eugenio Olivera Talleres Ativo 95 / 111 40% 1 10.11.2026 -
Facundo Butti Cerro Ativo 96 / 104 40% 3 09.11.2026 -
Nicolás Latorre Miramar Misiones Ativo 102 / 100 40% 1 09.11.2026 -
Matías Gallegos Antofagasta Ativo 101 / 104 40% 1 07.11.2026 -
Rodrigo Chagas Juventud Ativo 119 / 126 40% 3 05.11.2026 -
Nahuel Gallardo San Martín Ativo 107 / 109 40% 1 03.11.2026 -
Franco Díaz Temperley Ativo 118 / 130 40% 1 02.11.2026 -
Malcom Braida Boca Juniors Ativo 128 / 123 40% 1 02.11.2026 -
Santiago Corbo Miramar Misiones Ativo 104 / 112 40% 2 01.11.2026 -
Ismael Cortez Gimnasia y Esgrima Ativo 110 / 123 40% 1 01.11.2026 -
Juan Pablo Salomoni Union La Calera Ativo 117 / 100 40% 2 31.10.2026 -
Facundo Ardiles Estudiantes Ativo 120 / 106 40% 1 31.10.2026 -
Santiago Sala Güemes Ativo 112 / 109 40% 3 30.10.2026 -
Bautista Tomatis Racing Ativo 116 / 118 40% 2 30.10.2026 -
Agustín Cayetano Liverpool Montevideo Ativo 115 / 94 40% 1 30.10.2026 -
Rodrigo Cabrera River Plate Ativo 96 / 93 40% 1 28.10.2026 -
Franco Déboli Audax Italiano Ativo 111 / 113 40% 2 26.10.2026 -
Enrique Almeida Cerro Largo Ativo 98 / 96 40% 1 25.10.2026 -
Julián Brea Cobresal Ativo 110 / 105 40% 1 25.10.2026 -
Alejo Antilef Penarol Ativo 111 / 106 40% 1 24.10.2026 -
Misael Tarón Ferro Carril Oeste Ativo 120 / 100 40% 1 24.10.2026 -
Nahuel Sena Cerro Ativo 103 / 109 40% 2 23.10.2026 -
Rafael Haller Liverpool Montevideo Ativo 102 / 119 40% 1 23.10.2026 -
Valentín Rodríguez Penarol Ativo 99 / 108 40% 1 21.10.2026 -
Kevin Lewis Liverpool Montevideo Ativo 96 / 95 40% 1 21.10.2026 -
Daniel Mera Union Magdalena Ativo 97 / 105 40% 1 19.10.2026 -
Máximo Lorenzi Plaza Colonia Ativo 106 / 99 40% 1 19.10.2026 -
Joel Torres San Luis Ativo 87 / 97 40% 4 18.10.2026 -
Emanuel Carlos Atenas Ativo 91 / 86 40% 1 18.10.2026 -
Mauro Villar Cerro Ativo 97 / 94 40% 2 17.10.2026 -
Óscar Díaz Miramar Misiones Ativo 104 / 114 40% 2 17.10.2026 -
Augusto Gallo Fenix Ativo 90 / 110 40% 2 16.10.2026 -
Fredy Martínez Boston River Ativo 106 / 106 40% 2 15.10.2026 -
Erik de los Santos Racing Ativo 114 / 102 40% 3 14.10.2026 -
Franco Quinteros Estudiantes Ativo 121 / 118 40% 1 14.10.2026 -
Julián Aude LA Galaxy Ativo 119 / 96 40% 1 13.10.2026 -
Cristian Lima Uruguay Montevideo Ativo 91 / 92 40% 1 13.10.2026 -
Lucas Di Maio Cobresal Ativo 66 / 75 40% 1 11.10.2026 -
Juan Fernando Alfaro Olimpia Ativo 103 / 115 40% 4 09.10.2026 -
Mateo Argüello Miramar Misiones Ativo 107 / 104 40% 1 08.10.2026 -
Pablo da Silveira Cerro Ativo 86 / 100 40% 1 08.10.2026 -
Luca Franco Arsenal Perdido 99 / 119 40% 1 06.10.2026 -
Juan Romero Olimpia Ativo 122 / 108 40% 1 06.10.2026 -
Enzo Castillo Liverpool Montevideo Ativo 110 / 113 40% 1 05.10.2026 -
Santiago Apa All Boys Ativo 111 / 94 40% 1 04.10.2026 -
Juan Luis Alfaro Banfield Ativo 107 / 104 40% 1 02.10.2026 -
Jairo O'Neill Boston River Ativo 87 / 92 40% 1 02.10.2026 -
Rodrigo Cáseres Union La Calera Ativo 116 / 120 40% 5 28.09.2026 -
Tomás Moschion Albion Ativo 115 / 114 40% 2 27.09.2026 -
Nicolás Fernandez Universidad de Chile Ativo 116 / 97 40% 1 27.09.2026 -
Emiliano Ancheta Nacional Ativo 107 / 126 40% 3 26.09.2026 -
Daniel Rivera Junior Ativo 109 / 128 40% 1 26.09.2026 -
Santiago Homenchenko Queretaro Ativo 119 / 107 40% 1 24.09.2026 -
Efraín Navarro Once Caldas Ativo 114 / 110 40% 1 23.09.2026 -
Marcos López San Martín Ativo 137 / 124 40% 1 22.09.2026 -
Rodrigo Schlegel Atlas Ativo 105 / 104 40% 1 18.09.2026 -
Matías Cabrera Fenix Ativo 93 / 103 40% 1 13.09.2026 -
Nicolás Chaves Guadalajara Ativo 132 / 106 40% 1 12.09.2026 -
Daniel Rodriguez Valledupar Ativo 121 / 131 40% 2 11.09.2026 -
Alan Robledo O'Higgins Ativo 117 / 114 40% 1 11.09.2026 -
Diego Osio Deportivo La Guaira Ativo 103 / 125 40% 1 10.09.2026 -
Santiago Costa Albion Ativo 100 / 110 40% 1 09.09.2026 -
Fabián Ángel Junior Ativo 118 / 106 40% 1 05.09.2026 -
Vicente Durán San Luis Ativo 113 / 119 40% 1 05.09.2026 -
Braian Cuello Miramar Misiones Ativo 91 / 103 40% 2 04.09.2026 -
Álex Perdomo Defensor Sporting Ativo 92 / 93 40% 1 04.09.2026 -
Agustín Pinheiro Progreso Ativo 114 / 100 40% 2 03.09.2026 -
Matías Núñez Carabobo Ativo 96 / 115 40% 2 03.09.2026 -
Matías González Penarol Ativo 107 / 118 40% 1 31.08.2026 -
Iván Rojas Aguilas Doradas Ativo 129 / 108 40% 1 30.08.2026 -
Lucas Arzamendia Atenas Ativo 101 / 98 40% 1 29.08.2026 -
Rodrigo Pollero Deportivo Tachira Ativo 98 / 101 40% 1 29.08.2026 -
David Morosini Juventud Ativo 98 / 117 40% 1 27.08.2026 -
Martín Ginzo Deportivo Maldonado Ativo 99 / 115 40% 1 26.08.2026 -
Jhon Balanta Fortaleza CEIF Ativo 116 / 116 40% 1 24.08.2026 -
Luciano Minhondo Uruguay Montevideo Ativo 89 / 101 40% 1 22.08.2026 -
Luis Jiménez Jaguares Ativo 101 / 120 40% 1 22.08.2026 -
Agustín Aguirre Boston River Ativo 112 / 96 40% 1 21.08.2026 -
José Luis Caicedo Barranquilla Ativo 118 / 127 40% 1 21.08.2026 -
Yesid Díaz Fortaleza CEIF Ativo 122 / 121 40% 1 20.08.2026 -
Jorge Espejo Universidad de Concepcion Ativo 116 / 105 40% 1 19.08.2026 -
Julián Pou Montevideo City Torque Ativo 101 / 90 40% 1 19.08.2026 -
Germán Peralta La Luz Ativo 97 / 114 40% 2 18.08.2026 -
Jonathan Baeza La Luz Ativo 103 / 94 40% 1 18.08.2026 -
Lautaro Lusnig Deportivo Tachira Ativo 103 / 101 40% 1 16.08.2026 -
Franco Pérez Boston River Ativo 112 / 109 40% 1 15.08.2026 -
Mathías Rodríguez Cerrito Ativo 94 / 112 40% 1 10.08.2026 -
Mateo Puerta Deportivo Cali Ativo 102 / 114 40% 2 09.08.2026 -
Andrés Olivera Colon Ativo 92 / 101 40% 1 09.08.2026 -
Emiliano Aires Rampla Juniors Ativo 86 / 81 40% 1 08.08.2026 -
Kevin Palacios Santos Laguna Ativo 106 / 118 40% 1 07.08.2026 -
Agustín Pereira Albion Ativo 102 / 97 40% 1 07.08.2026 -
Santiago Simón Toluca Ativo 108 / 139 40% 1 06.08.2026 -
Ignacio Yepez Cerrito Ativo 106 / 120 40% 1 06.08.2026 -
Michael Nike Patriotas Ativo 114 / 95 40% 1 06.08.2026 -
Joaquín Fernández Deportivo Maldonado Ativo 106 / 85 40% 1 04.08.2026 -
Brian Ferrarés River Plate Ativo 89 / 83 40% 1 04.08.2026 -
Santiago Tamayo Santa Fe Ativo 93 / 117 40% 1 03.08.2026 -
Sebastián Vargas Nacional Ativo 100 / 122 40% 1 01.08.2026 -
Enzo Vlaeminch Oriental Ativo 106 / 93 40% 1 01.08.2026 -